50P/Arend (2024)

Japanese version
Home page
Updated on September 10, 2024

---------------------------------------------------------------------

* Profile

* Pictures

* Orbital Elements

Epoch 2024 Oct. 17.0 TT = JDT 2460600.5
T 2024 May 12.72313 TT                                  Rudenko
q   1.9221633            (2000.0)            P               Q
n   0.11919396     Peri.   49.33567     +0.70986416     -0.70379579
a   4.0891515      Node   355.15276     +0.50605025     +0.53692923
e   0.5299359      Incl.   19.09801     +0.48990409     +0.46516502
P   8.27
>From 1761 observations 1999 Aug. 3-2024 Aug. 29, mean residual 0".7.
     Nongravitational parameters A1 = +0.20, A2 = -0.0114.

* Magnitudes Graph

        m1 =  8.6 + 5 log d + 22.0 log r  [ ,0]  (             - 2024 May  12)
        m1 = 12.0 + 5 log d + 10.0 log r  [0, ]  (2024 May  12 -             )

---------------------------------------------------------------------

The orbital elements are published on M.P.E.C. 2024-R10.
The magnitudes graphs are made with Comet for Windows.

---------------------------------------------------------------------

Copyright(C) Seiichi Yoshida (comet@aerith.net). All rights reserved.